Location: Alsip
(41.6689°N, 87.7387°W)
Time: 14:18:58
(UTC+00:00)

Cosmos 2058 - Pass Details

Date: 14 July 2020
Orbit: 561 x 584 km, 82.5° (Epoch: 04 August)

Event Time Altitude Azimuth Distance (km) Brightness Sun altitude
Exits shadow 02:33:45 16° 139° (SE) 1,521 4.4 -11.2°
Maximum altitude 02:36:13 28° 90° (E) 1,086 3.9 -11.5°
Drops below altitude 10° 02:39:45 10° 31° (NNE) 1,874 5.7 -12.0°
Sets 02:42:08 0° 20° (NNE) 2,772 6.7 -12.3°
